Location: Unspecified
(41.1637°N, 24.2901°E)
Time: 09:48:13
(UTC+01:00)

ISS - Pass Details

Date: 20 October 2020
Orbit: 417 x 420 km, 51.6° (Epoch: 29 October)

Event Time Altitude Azimuth Distance (km) Brightness Sun altitude
Rises 06:01:15 0° 195° (SSW) 2,343 0.0 -8.1°
Reaches altitude 10° 06:03:49 10° 175° (S) 1,485 -0.8 -7.6°
Maximum altitude 06:06:05 17° 132° (SE) 1,128 -0.7 -7.2°
Drops below altitude 10° 06:08:22 10° 89° (E) 1,492 0.7 -6.7°
Sets 06:10:57 0° 68° (ENE) 2,360 1.2 -6.3°
